Campo, CA

5:02 AM PDT on October 16, 2019 (GMT -0700)
Campo

Weather History for KCZZ - August, 2019

Change the Weather History Date:

Friday, August 9, 2019

  Actual Average Record
Temperature  
Mean Temperature 69 °F 74 °F  
Max Temperature 91 °F 95 °F 105 °F (1995)
Min Temperature 46 °F 54 °F 38 °F (1951)
Degree Days  
Heating Degree Days 0 0  
Month to date heating degree days 0 0  
Since 1 June heating degree days 42 63  
Since 1 July heating degree days 6 7  
Cooling Degree Days 4 9  
Month to date cooling degree days 114 81  
Year to date cooling degree days 442 453  
Since 1 June cooling degree days 440 423  
Growing Degree Days 20 (Base 50)    
Moisture  
Dew Point 35 °F    
Average Humidity 35    
Maximum Humidity 59    
Minimum Humidity 11    
Precipitation  
Precipitation 0.00 in 0.02 in 0.05 in (1998)
Month to date precipitation 0.00 0.19  
Year to date precipitation 12.82 10.66  
Sea Level Pressure  
Sea Level Pressure 29.85 in    
Wind  
Wind Speed 8 mph (NNW)    
Max Wind Speed 20 mph    
Max Gust Speed 25 mph    
T = Trace of Precipitation, MM = Missing Value Source: NWS Daily Summary

Daily Weather History Graph

Daily Weather History Graph

Search for Another Location

Airport or City:

Astronomy

Aug. 09, 2019 Rise Set
Actual Time 6:05 AM PDT 7:36 PM PDT
Civil Twilight 5:39 AM PDT 8:03 PM PDT
Nautical Twilight 5:07 AM PDT 8:34 PM PDT
Astronomical Twilight 4:34 AM PDT 9:07 PM PDT
Moon 3:18 PM PDT (8/9) 1:07 AM PDT (8/9)
Length of Visible Light 14h 24m
Length of Day
13h 31m
Waxing Gibbous, 71% of the Moon is Illuminated
Aug 9
Waxing Gibbous
Aug 15
Full
Aug 23
Last Quarter
Aug 30
New
Sep 5
First Quarter

Hourly Weather History & Observations

Time (PDT) Temp. Dew Point Humidity Pressure Visibility Wind Dir Wind Speed Gust Speed Precip Events Conditions
12:52 AM 54.0 °F 37.9 °F 55% 29.84 in - NE 3.5 mph - N/A   Unknown
1:52 AM 55.9 °F 39.9 °F 55% 29.84 in - NE 3.5 mph - N/A   Unknown
2:52 AM 55.0 °F 37.0 °F 51% 29.83 in - NNE 3.5 mph - N/A   Unknown
3:52 AM 52.0 °F 37.0 °F 57% 29.83 in - NE 6.9 mph - N/A   Unknown
4:52 AM 51.1 °F 35.1 °F 54% 29.85 in - NE 5.8 mph - N/A   Unknown
5:52 AM 50.0 °F 32.0 °F 50% 29.86 in - NE 4.6 mph - N/A   Unknown
6:52 AM 53.1 °F 32.0 °F 45% 29.88 in - ENE 8.1 mph - N/A   Unknown
7:52 AM 66.0 °F 34.0 °F 30% 29.88 in - Calm Calm - N/A   Unknown
8:52 AM 78.1 °F 28.9 °F 17% 29.87 in - Calm Calm - N/A   Unknown
9:52 AM 84.0 °F 25.0 °F 12% 29.87 in - SSW 6.9 mph - N/A   Unknown
10:52 AM 88.0 °F 27.0 °F 11% 29.87 in - SW 12.7 mph - N/A   Unknown
11:52 AM 89.1 °F 28.0 °F 11% 29.87 in - SW 11.5 mph 17.3 mph N/A   Unknown
12:52 PM 90.0 °F 28.0 °F 11% 29.87 in - WSW 12.7 mph 23.0 mph N/A   Unknown
1:52 PM 90.0 °F 33.1 °F 13% 29.86 in - SSW 11.5 mph 20.7 mph N/A   Unknown
2:52 PM 90.0 °F 37.0 °F 15% 29.84 in - SW 17.3 mph - N/A   Unknown
3:52 PM 89.1 °F 37.0 °F 16% 29.83 in - SSW 17.3 mph 24.2 mph N/A   Unknown
4:52 PM 88.0 °F 37.9 °F 17% 29.83 in - WSW 11.5 mph 23.0 mph N/A   Unknown
5:52 PM 87.1 °F 37.0 °F 17% 29.83 in - West 12.7 mph 17.3 mph N/A   Unknown
6:52 PM 82.0 °F 36.0 °F 19% 29.83 in - West 11.5 mph - N/A   Unknown
8:52 PM 66.9 °F 46.0 °F 47% 29.85 in - SSE 3.5 mph - N/A   Unknown
9:52 PM 60.1 °F 37.0 °F 42% 29.87 in - NNE 5.8 mph - N/A   Unknown
10:52 PM 57.0 °F 37.9 °F 49% 29.86 in - NE 5.8 mph - N/A   Unknown
11:52 PM 55.9 °F 37.9 °F 51% 29.86 in - NE 5.8 mph - N/A   Unknown